This demonstration page uses our WeatherBlox Daily Observations layout. Learn more.

36.17497, -115.13722

Hourly Observations for November 2, 2019

Temp ( °F °C ) Dew Point ( °F °C ) Humidity (%) Winds ( mph kmh ) Pressure ( in mb ) Visibility ( mi km ) Precip ( " mm )
12:53 am 00:53 Clear 50 10 7 -13.9 17 17 WNW 6 9 30.28 1026 10 16.0934 0 0
1:53 am 01:53 Clear 45 7.2 9 -12.8 23 23 NNW 6 9 30.29 1026 10 16.0934 0 0
2:53 am 02:53 Clear 46 7.8 6 -14.4 19 19 W 8 13 30.29 1026 10 16.0934 0 0
3:53 am 03:53 Clear 46 7.8 6 -14.4 19 19 NW 7 11 30.28 1025 10 16.0934 0 0
4:53 am 04:53 Clear 48 8.9 5 -15 17 17 W 7 11 30.29 1026 10 16.0934 0 0
5:53 am 05:53 Clear 44 6.7 8 -13.3 23 23 W 7 11 30.3 1026 10 16.0934 0 0
6:53 am 06:53 Clear 46 7.8 4 -15.6 17 17 NW 8 13 30.29 1026 10 16.0934 0 0
7:53 am 07:53 Sunny 47 8.3 7 -13.9 19 19 W 8 13 30.31 1026 10 16.0934 0 0
8:53 am 08:53 Sunny 55 12.8 7 -13.9 14 14 NW 5 7 30.32 1027 10 16.0934 0 0
9:53 am 09:53 Sunny 59 15 6 -14.4 12 12 Calm 30.32 1027 10 16.0934 0 0
10:53 am 10:53 Sunny 63 17.2 5 -15 10 10 Calm 30.3 1026 10 16.0934 0 0
11:53 am 11:53 Sunny 66 18.9 6 -14.4 9 9 VRB 3 6 30.27 1025 10 16.0934 0 0
12:53 pm 12:53 Sunny 68 20 4 -15.6 8 8 VRB 3 6 30.23 1024 10 16.0934 0 0
1:53 pm 13:53 Sunny 71 21.7 5 -15 7 7 Calm 30.2 1023 10 16.0934 0 0
2:53 pm 14:53 Sunny 71 21.7 5 -15 7 7 Calm 30.17 1022 10 16.0934 0 0
3:53 pm 15:53 Sunny 72 22.2 6 -14.4 7 7 Calm 30.16 1021 10 16.0934 0 0
4:53 pm 16:53 Sunny 72 22.2 6 -14.4 7 7 Calm 30.14 1021 10 16.0934 0 0
5:53 pm 17:53 Clear 70 21.1 8 -13.3 9 9 Calm 30.13 1020 10 16.0934 0 0
6:53 pm 18:53 Clear 65 18.3 14 -10 14 14 W 3 6 30.13 1020 10 16.0934 0 0
7:53 pm 19:53 Clear 60 15.6 16 -8.9 18 18 WNW 6 9 30.14 1021 10 16.0934 0 0
8:53 pm 20:53 Clear 58 14.4 15 -9.4 18 18 WNW 7 11 30.13 1020 10 16.0934 0 0
9:53 pm 21:53 Clear 55 12.8 15 -9.4 20 20 WNW 6 9 30.13 1020 10 16.0934 0 0
10:53 pm 22:53 Clear 53 11.7 15 -9.4 22 22 W 6 9 30.13 1020 10 16.0934 0 0
11:53 pm 23:53 Clear 52 11.1 15 -9.4 23 23 Calm 30.12 1020 10 16.0934 0 0

Powered by AerisWeather